Ashtabula, OH

10:23 PM EDT on October 19, 2017 (GMT -0400)
Ashtabula County

Weather History for KHZY - August, 2013

Change the Weather History Date:

Saturday, August 24, 2013

  Actual Average (KGKJ) Record (KGKJ)
Temperature  
Mean Temperature 64 °F -  
Max Temperature 78 °F 77 °F 91 °F (1968)
Min Temperature 50 °F 54 °F 40 °F (1951)
Degree Days  
Heating Degree Days 1    
Growing Degree Days 14 (Base 50)    
Moisture  
Dew Point 53 °F    
Average Humidity 71    
Maximum Humidity 90    
Minimum Humidity 38    
Precipitation  
Precipitation 0.01 in - - ()
Sea Level Pressure  
Sea Level Pressure 30.30 in    
Wind  
Wind Speed 2 mph (ENE)    
Max Wind Speed 7 mph    
Max Gust Speed -    
Visibility 10 miles    
Events      
Averages and records for this station are not official NWS values.
T = Trace of Precipitation, MM = Missing Value Source: NWS Daily Summary

Daily Weather History Graph

Daily Weather History Graph

Search for Another Location

Airport or City:

Trip Planner

Search our weather history database for the weather conditions in past years. The results will help you decide how hot, cold, wet, or windy it might be!

Date:

Astronomy

Aug. 24, 2013 Rise Set
Actual Time 6:40 AM EDT 8:08 PM EDT
Civil Twilight 6:11 AM EDT 8:37 PM EDT
Nautical Twilight 5:36 AM EDT 9:12 PM EDT
Astronomical Twilight 4:58 AM EDT 9:49 PM EDT
Moon 9:57 PM EDT (8/24) 10:43 AM EDT (8/24)
Length of Visible Light 14h 26m
Length of Day
13h 28m
Waning Gibbous, 84% of the Moon is Illuminated
Aug 24
Waning Gibbous
Aug 28
Last Quarter
Sep 5
New
Sep 12
First Quarter
Sep 19
Full

Hourly Weather History & Observations

Time (EDT) Temp. Dew Point Humidity Pressure Visibility Wind Dir Wind Speed Gust Speed Precip Events Conditions
12:53 AM 55.9 °F 52.0 °F 87% 30.22 in 10.0 mi Calm Calm - N/A   Clear
1:53 AM 54.0 °F 51.1 °F 90% 30.23 in 10.0 mi Calm Calm - N/A   Clear
2:53 AM 53.1 °F 50.0 °F 89% 30.23 in 10.0 mi East 3.5 mph - 0.01 in   Clear
3:53 AM 52.0 °F 48.9 °F 89% 30.25 in 9.0 mi Calm Calm - N/A   Clear
4:53 AM 51.1 °F 46.9 °F 86% 30.25 in 10.0 mi Calm Calm - N/A   Clear
5:53 AM 50.0 °F 46.9 °F 89% 30.27 in 9.0 mi Calm Calm - N/A   Clear
6:53 AM 50.0 °F 46.9 °F 89% 30.29 in 9.0 mi East 3.5 mph - N/A   Clear
7:53 AM 55.0 °F 52.0 °F 89% 30.32 in 10.0 mi Calm Calm - N/A   Clear
8:53 AM 62.1 °F 55.0 °F 78% 30.33 in 10.0 mi SE 4.6 mph - N/A   Clear
9:53 AM 66.0 °F 55.0 °F 68% 30.35 in 10.0 mi Calm Calm - N/A   Clear
10:53 AM 70.0 °F 54.0 °F 57% 30.34 in 10.0 mi SE 5.8 mph - N/A   Clear
11:53 AM 73.0 °F 48.0 °F 41% 30.35 in 10.0 mi ENE 6.9 mph - N/A   Clear
12:53 PM 75.0 °F 48.9 °F 40% 30.33 in 10.0 mi Variable 4.6 mph - N/A   Clear
1:53 PM 75.9 °F 48.9 °F 38% 30.32 in 10.0 mi NE 5.8 mph - N/A   Clear
2:53 PM 78.1 °F 55.0 °F 45% 30.31 in 10.0 mi Variable 4.6 mph - N/A   Clear
3:53 PM 75.9 °F 55.9 °F 50% 30.30 in 10.0 mi NE 6.9 mph - N/A   Clear
4:53 PM 77.0 °F 57.0 °F 50% 30.30 in 10.0 mi Variable 5.8 mph - N/A   Clear
5:53 PM 75.0 °F 57.0 °F 53% 30.31 in 10.0 mi Variable 5.8 mph - N/A   Clear
6:53 PM 72.0 °F 57.0 °F 59% 30.31 in 10.0 mi NNE 3.5 mph - N/A   Clear
7:53 PM 68.0 °F 57.0 °F 68% 30.31 in 10.0 mi NE 3.5 mph - N/A   Clear
8:53 PM 63.0 °F 57.0 °F 81% 30.32 in 10.0 mi Calm Calm - N/A   Clear
9:53 PM 59.0 °F 55.9 °F 90% 30.33 in 10.0 mi Calm Calm - N/A   Clear
10:53 PM 57.9 °F 55.0 °F 90% 30.32 in 10.0 mi East 3.5 mph - N/A   Clear
11:53 PM 57.9 °F 54.0 °F 87% 30.32 in 10.0 mi East 3.5 mph - N/A   Clear